Вернуться в каталог

STARLINK-5236

АктивенСвязьVLEO
NORAD 55274·PAYLOAD·🇺🇸 United States

Запущен Jan 19, 2023 с Vandenberg Space Force Base

Loading…

Ближайшие Пролёты (ближайшие 24 часа)

TLE

СвежийSource: CelesTrak SupGP

Эпоха: Sep 15, 2026, 01:18 UTC

1 55274C 23010F   26258.05465278 -.00005722  00000+0 -47938-3 0  2588
2 55274  69.9995 267.1600 0003720 264.4647 331.9666 14.98339597    12

Отслеживайте STARLINK-5236 в реальном времени с AllMySat

Download on the App Store